Вернуться в каталог

SL-14 DEB

АктивенPO
NORAD 45297·DEBRIS·🇷🇺 Russia

Запущен Aug 15, 1991 с Plesetsk Cosmodrome

Loading…

Ближайшие Пролёты (ближайшие 24 часа)

TLE

СвежийSource: Space-Track

Эпоха: Sep 14, 2026, 13:50 UTC

1 45297U 91056AK  26257.57641928  .00003200  00000-0  76323-2 0  9990
2 45297  82.5993 110.3811 0042136 193.1458 166.8573 13.22226860314542

Отслеживайте SL-14 DEB в реальном времени с AllMySat

Download on the App Store